Flag for Puerto Rico Weather past 2 weeks in Caguas, Puerto Rico

Now
89 °F

Scattered clouds.


Feels Like: 100 °F
Forecast: 77 / 92 °F
Wind: 15 mph from East

Location: Luis Munoz Marin

Current Time: Aug 29, 2015 at 1:50:45 PM

Latest Report: Aug 29, 2015 at 12:56 PM


Visibility: 10 mi

Pressure: 30.03 "Hg

Humidity: 65%

Dew point: 76 °F

Location of CaguasLocation

Historic Weather in Caguas — Graph

°F

Caguas temperature yesterday

Maximum temperature yesterday: 89 °F (at 1:56 PM)
Minimum temperature yesterday: 76 °F (at 2:56 AM)
Average temperature yesterday: 82 °F

Past Weeks' High & Low Weather Summary

 TemperatureHumidityPressure
High91 °F (Aug 14, 12:56 PM)100% (Aug 16, 2:56 PM)30.06 "Hg (Aug 16, 2:56 PM)
Low74 °F (Aug 17, 5:56 AM)57% (Aug 14, 1:56 PM)29.84 "Hg (Aug 27, 4:56 PM)
Average82 °F85%29.97 "Hg
* Reported Aug 14 11:56 AM — Aug 29 11:56 AM, Caguas, Weather by CustomWeather, © 2015

Note: Actual official high and low records may vary slightly from our data, if they occured in-between our weather recording intervals... More about our weather records

Advertising

Caguas weather history for previous 24 hours

 ConditionsComfort  
Time TempWeatherWind HumidityBarometerVisibility
11:56 AM
Sat, Aug 29
89 °FScattered clouds.14 mph65%30.04 "Hg10 mi
10:56 AM88 °FScattered clouds.17 mph65%30.05 "Hg10 mi
9:56 AM87 °FScattered clouds.14 mph65%30.06 "Hg10 mi
8:56 AM86 °FScattered clouds.13 mph65%30.05 "Hg10 mi
7:56 AM84 °FScattered clouds.7 mph74%30.03 "Hg10 mi
6:56 AM81 °FPassing clouds.No wind82%30.02 "Hg10 mi
5:56 AM81 °FPartly cloudy.3 mph82%30.01 "Hg10 mi
4:56 AM81 °FPassing clouds.No wind82%30.00 "Hg10 mi
3:56 AM81 °FPassing clouds.5 mph82%29.98 "Hg10 mi
2:56 AM82 °FPassing clouds.5 mph79%30.00 "Hg10 mi
1:56 AM82 °FPassing clouds.6 mph79%30.01 "Hg10 mi
12:56 AM82 °FPassing clouds.6 mph85%30.02 "Hg10 mi
11:56 PM
Fri, Aug 28
83 °FPassing clouds.10 mph82%30.02 "Hg10 mi
10:56 PM82 °FPassing clouds.9 mph85%30.03 "Hg10 mi
9:56 PM82 °FPassing clouds.6 mph85%30.04 "Hg10 mi
8:56 PM82 °FPassing clouds.8 mph82%30.02 "Hg10 mi
7:56 PM83 °FPassing clouds.9 mph77%30.01 "Hg10 mi
6:56 PM84 °FScattered clouds.10 mph74%30.00 "Hg10 mi
5:56 PM84 °FBroken clouds.12 mph77%29.99 "Hg10 mi
4:56 PM85 °FBroken clouds.16 mph70%29.99 "Hg9 mi
3:56 PM86 °FBroken clouds.17 mph72%29.98 "Hg9 mi
2:56 PM88 °FBroken clouds.17 mph65%29.98 "Hg10 mi
1:56 PM89 °FBroken clouds.17 mph68%29.98 "Hg10 mi
Weather by CustomWeather, © 2015

See weather overviewHow to use our weather pages